Time,TemperatureF,DewpointF,PressureIn,WindDirection,WindDirectionDegrees,WindSpeedMPH,WindSpeedGustMPH,Humidity,HourlyPrecipIn,Conditions,Clouds,dailyrainin,SoftwareType,DateUTC
2013-04-21 00:00:00,49.0,44.0,-100.00,WSW,246,8.0,-999.0,83,0.00,,,-99.99,,2013-04-21 07:00:00,
2013-04-21 00:22:00,49.0,44.0,-100.00,WSW,246,8.0,-999.0,83,0.00,,,-99.99,,2013-04-21 07:22:00,
2013-04-21 00:32:00,49.0,44.0,-100.00,WSW,246,8.0,-999.0,83,0.00,,,-99.99,,2013-04-21 07:32:00,
2013-04-21 00:42:00,49.0,44.0,-100.00,WSW,246,8.0,-999.0,83,0.00,,,-99.99,,2013-04-21 07:42:00,
2013-04-21 00:52:00,49.0,44.0,-100.00,WSW,246,8.0,-999.0,83,0.00,,,-99.99,,2013-04-21 07:52:00,
2013-04-21 01:00:00,50.0,44.0,-100.00,WSW,249,5.0,-999.0,80,0.00,,,-99.99,,2013-04-21 08:00:00,
2013-04-21 01:22:00,50.0,44.0,-100.00,WSW,249,5.0,-999.0,80,0.00,,,-99.99,,2013-04-21 08:22:00,
2013-04-21 01:32:00,50.0,44.0,-100.00,WSW,249,5.0,-999.0,80,0.00,,,-99.99,,2013-04-21 08:32:00,
2013-04-21 01:42:00,50.0,44.0,-100.00,WSW,249,5.0,-999.0,80,0.00,,,-99.99,,2013-04-21 08:42:00,
2013-04-21 01:52:00,50.0,44.0,-100.00,WSW,249,5.0,-999.0,80,0.00,,,-99.99,,2013-04-21 08:52:00,
2013-04-21 02:00:00,51.0,44.0,-100.00,West,270,5.0,-999.0,77,0.00,,,-99.99,,2013-04-21 09:00:00,
2013-04-21 02:21:00,51.0,44.0,-100.00,West,270,5.0,-999.0,77,0.00,,,-99.99,,2013-04-21 09:21:00,
2013-04-21 02:33:00,51.0,44.0,-100.00,West,270,5.0,-999.0,77,0.00,,,-99.99,,2013-04-21 09:33:00,
2013-04-21 02:43:00,51.0,44.0,-100.00,West,270,5.0,-999.0,77,0.00,,,-99.99,,2013-04-21 09:43:00,
2013-04-21 02:53:00,51.0,44.0,-100.00,West,270,5.0,-999.0,77,0.00,,,-99.99,,2013-04-21 09:53:00,
2013-04-21 03:00:00,47.0,43.0,-100.00,SSW,213,2.0,-999.0,84,0.00,,,-99.99,,2013-04-21 10:00:00,
2013-04-21 03:22:00,47.0,43.0,-100.00,SSW,213,2.0,-999.0,84,0.00,,,-99.99,,2013-04-21 10:22:00,
2013-04-21 03:33:00,47.0,43.0,-100.00,SSW,213,2.0,-999.0,84,0.00,,,-99.99,,2013-04-21 10:33:00,
2013-04-21 03:42:00,47.0,43.0,-100.00,SSW,213,2.0,-999.0,84,0.00,,,-99.99,,2013-04-21 10:42:00,
2013-04-21 03:52:00,47.0,43.0,-100.00,SSW,213,2.0,-999.0,84,0.00,,,-99.99,,2013-04-21 10:52:00,
2013-04-21 04:00:00,46.0,43.0,-100.00,WSW,244,6.0,-999.0,89,0.00,,,-99.99,,2013-04-21 11:00:00,
2013-04-21 04:22:00,46.0,43.0,-100.00,WSW,244,6.0,-999.0,89,0.00,,,-99.99,,2013-04-21 11:22:00,
2013-04-21 04:34:00,46.0,43.0,-100.00,WSW,244,6.0,-999.0,89,0.00,,,-99.99,,2013-04-21 11:34:00,
2013-04-21 04:42:00,46.0,43.0,-100.00,WSW,244,6.0,-999.0,89,0.00,,,-99.99,,2013-04-21 11:42:00,
2013-04-21 04:52:00,46.0,43.0,-100.00,WSW,244,6.0,-999.0,89,0.00,,,-99.99,,2013-04-21 11:52:00,
2013-04-21 05:00:00,49.0,44.0,-100.00,ESE,109,1.0,-999.0,83,0.00,,,-99.99,,2013-04-21 12:00:00,
2013-04-21 05:22:00,49.0,44.0,-100.00,ESE,109,1.0,-999.0,83,0.00,,,-99.99,,2013-04-21 12:22:00,
2013-04-21 05:32:00,49.0,44.0,-100.00,ESE,109,1.0,-999.0,83,0.00,,,-99.99,,2013-04-21 12:32:00,
2013-04-21 05:42:00,49.0,44.0,-100.00,ESE,109,1.0,-999.0,83,0.00,,,-99.99,,2013-04-21 12:42:00,
2013-04-21 05:52:00,49.0,44.0,-100.00,ESE,109,1.0,-999.0,83,0.00,,,-99.99,,2013-04-21 12:52:00,
2013-04-21 06:00:00,50.0,45.0,-100.00,North,2,4.0,-999.0,80,0.00,,,-99.99,,2013-04-21 13:00:00,
2013-04-21 06:22:00,50.0,45.0,-100.00,North,2,4.0,-999.0,80,0.00,,,-99.99,,2013-04-21 13:22:00,
2013-04-21 06:32:00,50.0,45.0,-100.00,North,2,4.0,-999.0,80,0.00,,,-99.99,,2013-04-21 13:32:00,
2013-04-21 07:22:00,53.0,45.0,-100.00,NNW,342,4.0,-999.0,73,0.00,,,-99.99,,2013-04-21 14:22:00,
2013-04-21 07:32:00,53.0,45.0,-100.00,NNW,342,4.0,-999.0,73,0.00,,,-99.99,,2013-04-21 14:32:00,
2013-04-21 08:22:00,55.0,45.0,-100.00,WSW,247,2.0,-999.0,69,0.00,,,-99.99,,2013-04-21 15:22:00,
2013-04-21 08:33:00,55.0,45.0,-100.00,WSW,247,2.0,-999.0,69,0.00,,,-99.99,,2013-04-21 15:33:00,
2013-04-21 09:00:00,58.0,47.0,-100.00,North,10,4.0,-999.0,65,0.00,,,-99.99,,2013-04-21 16:00:00,
2013-04-21 09:23:00,58.0,47.0,-100.00,North,10,4.0,-999.0,65,0.00,,,-99.99,,2013-04-21 16:23:00,
2013-04-21 09:33:00,58.0,47.0,-100.00,North,10,4.0,-999.0,65,0.00,,,-99.99,,2013-04-21 16:33:00,
2013-04-21 09:42:00,58.0,47.0,-100.00,North,10,4.0,-999.0,65,0.00,,,-99.99,,2013-04-21 16:42:00,
2013-04-21 09:52:00,58.0,47.0,-100.00,North,10,4.0,-999.0,65,0.00,,,-99.99,,2013-04-21 16:52:00,
2013-04-21 10:00:00,62.0,47.0,-100.00,NNW,335,9.0,-999.0,57,0.00,,,-99.99,,2013-04-21 17:00:00,
2013-04-21 10:23:00,62.0,47.0,-100.00,NNW,335,9.0,-999.0,57,0.00,,,-99.99,,2013-04-21 17:23:00,
2013-04-21 10:32:00,62.0,47.0,-100.00,NNW,335,9.0,-999.0,57,0.00,,,-99.99,,2013-04-21 17:32:00,
2013-04-21 10:42:00,62.0,47.0,-100.00,NNW,335,9.0,-999.0,57,0.00,,,-99.99,,2013-04-21 17:42:00,
2013-04-21 10:52:00,62.0,47.0,-100.00,NNW,335,9.0,-999.0,57,0.00,,,-99.99,,2013-04-21 17:52:00,
2013-04-21 11:00:00,66.0,54.0,-100.00,SSW,208,3.0,-999.0,66,0.00,,,-99.99,,2013-04-21 18:00:00,
2013-04-21 11:22:00,66.0,54.0,-100.00,SSW,208,3.0,-999.0,66,0.00,,,-99.99,,2013-04-21 18:22:00,
2013-04-21 11:33:00,66.0,54.0,-100.00,SSW,208,3.0,-999.0,66,0.00,,,-99.99,,2013-04-21 18:33:00,
2013-04-21 11:42:00,66.0,54.0,-100.00,SSW,208,3.0,-999.0,66,0.00,,,-99.99,,2013-04-21 18:42:00,
2013-04-21 11:52:00,66.0,54.0,-100.00,SSW,208,3.0,-999.0,66,0.00,,,-99.99,,2013-04-21 18:52:00,
2013-04-21 12:00:00,70.0,54.0,-100.00,SSW,201,9.0,-999.0,56,0.00,,,-99.99,,2013-04-21 19:00:00,
2013-04-21 12:22:00,70.0,54.0,-100.00,SSW,201,9.0,-999.0,56,0.00,,,-99.99,,2013-04-21 19:22:00,
2013-04-21 12:32:00,70.0,54.0,-100.00,SSW,201,9.0,-999.0,56,0.00,,,-99.99,,2013-04-21 19:32:00,
2013-04-21 12:42:00,70.0,54.0,-100.00,SSW,201,9.0,-999.0,56,0.00,,,-99.99,,2013-04-21 19:42:00,
2013-04-21 12:52:00,70.0,54.0,-100.00,SSW,201,9.0,-999.0,56,0.00,,,-99.99,,2013-04-21 19:52:00,
2013-04-21 13:00:00,71.0,52.0,-100.00,West,259,6.0,-999.0,52,0.00,,,-99.99,,2013-04-21 20:00:00,
2013-04-21 13:22:00,71.0,52.0,-100.00,West,259,6.0,-999.0,52,0.00,,,-99.99,,2013-04-21 20:22:00,
2013-04-21 13:32:00,71.0,52.0,-100.00,West,259,6.0,-999.0,52,0.00,,,-99.99,,2013-04-21 20:32:00,
2013-04-21 13:42:00,71.0,52.0,-100.00,West,259,6.0,-999.0,52,0.00,,,-99.99,,2013-04-21 20:42:00,
2013-04-21 13:52:00,71.0,52.0,-100.00,West,259,6.0,-999.0,52,0.00,,,-99.99,,2013-04-21 20:52:00,
2013-04-21 14:00:00,72.0,53.0,-100.00,WSW,238,11.0,-999.0,51,0.00,,,-99.99,,2013-04-21 21:00:00,
2013-04-21 14:22:00,72.0,53.0,-100.00,WSW,238,11.0,-999.0,51,0.00,,,-99.99,,2013-04-21 21:22:00,
2013-04-21 14:33:00,72.0,53.0,-100.00,WSW,238,11.0,-999.0,51,0.00,,,-99.99,,2013-04-21 21:33:00,
2013-04-21 14:43:00,72.0,53.0,-100.00,WSW,238,11.0,-999.0,51,0.00,,,-99.99,,2013-04-21 21:43:00,
2013-04-21 14:53:00,72.0,53.0,-100.00,WSW,238,11.0,-999.0,51,0.00,,,-99.99,,2013-04-21 21:53:00,
2013-04-21 15:00:00,72.0,51.0,-100.00,WSW,247,11.0,-999.0,46,0.00,,,-99.99,,2013-04-21 22:00:00,
2013-04-21 15:22:00,72.0,51.0,-100.00,WSW,247,11.0,-999.0,46,0.00,,,-99.99,,2013-04-21 22:22:00,
2013-04-21 15:33:00,72.0,51.0,-100.00,WSW,247,11.0,-999.0,46,0.00,,,-99.99,,2013-04-21 22:33:00,
2013-04-21 15:43:00,72.0,51.0,-100.00,WSW,247,11.0,-999.0,46,0.00,,,-99.99,,2013-04-21 22:43:00,
2013-04-21 15:52:00,72.0,51.0,-100.00,WSW,247,11.0,-999.0,46,0.00,,,-99.99,,2013-04-21 22:52:00,
2013-04-21 16:00:00,74.0,44.0,-100.00,SW,236,14.0,-999.0,35,0.00,,,-99.99,,2013-04-21 23:00:00,
2013-04-21 16:22:00,74.0,44.0,-100.00,SW,236,14.0,-999.0,35,0.00,,,-99.99,,2013-04-21 23:22:00,
2013-04-21 16:32:00,74.0,44.0,-100.00,SW,236,14.0,-999.0,35,0.00,,,-99.99,,2013-04-21 23:32:00,
2013-04-21 16:42:00,74.0,44.0,-100.00,SW,236,14.0,-999.0,35,0.00,,,-99.99,,2013-04-21 23:42:00,
2013-04-21 16:52:00,74.0,44.0,-100.00,SW,236,14.0,-999.0,35,0.00,,,-99.99,,2013-04-21 23:52:00,
2013-04-21 17:00:00,72.0,48.0,-100.00,WSW,243,10.0,-999.0,43,0.00,,,-99.99,,2013-04-22 00:00:00,
2013-04-21 17:22:00,72.0,48.0,-100.00,WSW,243,10.0,-999.0,43,0.00,,,-99.99,,2013-04-22 00:22:00,
2013-04-21 17:32:00,72.0,48.0,-100.00,WSW,243,10.0,-999.0,43,0.00,,,-99.99,,2013-04-22 00:32:00,
2013-04-21 17:42:00,72.0,48.0,-100.00,WSW,243,10.0,-999.0,43,0.00,,,-99.99,,2013-04-22 00:42:00,
2013-04-21 17:52:00,72.0,48.0,-100.00,WSW,243,10.0,-999.0,43,0.00,,,-99.99,,2013-04-22 00:52:00,
2013-04-21 18:00:00,69.0,52.0,-100.00,SW,231,10.0,-999.0,53,0.00,,,-99.99,,2013-04-22 01:00:00,
2013-04-21 18:22:00,69.0,52.0,-100.00,SW,231,10.0,-999.0,53,0.00,,,-99.99,,2013-04-22 01:22:00,
2013-04-21 18:32:00,69.0,52.0,-100.00,SW,231,10.0,-999.0,53,0.00,,,-99.99,,2013-04-22 01:32:00,
2013-04-21 18:42:00,69.0,52.0,-100.00,SW,231,10.0,-999.0,53,0.00,,,-99.99,,2013-04-22 01:42:00,
2013-04-21 18:52:00,69.0,52.0,-100.00,SW,231,10.0,-999.0,53,0.00,,,-99.99,,2013-04-22 01:52:00,
2013-04-21 19:00:00,66.0,53.0,-100.00,SSW,210,7.0,-999.0,61,0.00,,,-99.99,,2013-04-22 02:00:00,
2013-04-21 19:22:00,66.0,53.0,-100.00,SSW,210,7.0,-999.0,61,0.00,,,-99.99,,2013-04-22 02:22:00,
2013-04-21 19:32:00,66.0,53.0,-100.00,SSW,210,7.0,-999.0,61,0.00,,,-99.99,,2013-04-22 02:32:00,
2013-04-21 19:42:00,66.0,53.0,-100.00,SSW,210,7.0,-999.0,61,0.00,,,-99.99,,2013-04-22 02:42:00,
2013-04-21 19:52:00,66.0,53.0,-100.00,SSW,210,7.0,-999.0,61,0.00,,,-99.99,,2013-04-22 02:52:00,
2013-04-21 20:00:00,61.0,50.0,-100.00,WSW,243,8.0,-999.0,65,0.00,,,-99.99,,2013-04-22 03:00:00,
2013-04-21 20:22:00,61.0,50.0,-100.00,WSW,243,8.0,-999.0,65,0.00,,,-99.99,,2013-04-22 03:22:00,
2013-04-21 20:33:00,61.0,50.0,-100.00,WSW,243,8.0,-999.0,65,0.00,,,-99.99,,2013-04-22 03:33:00,
2013-04-21 20:43:00,61.0,50.0,-100.00,WSW,243,8.0,-999.0,65,0.00,,,-99.99,,2013-04-22 03:43:00,
2013-04-21 20:52:00,61.0,50.0,-100.00,WSW,243,8.0,-999.0,65,0.00,,,-99.99,,2013-04-22 03:52:00,
2013-04-21 21:00:00,58.0,45.0,-100.00,NW,320,3.0,-999.0,59,0.00,,,-99.99,,2013-04-22 04:00:00,
2013-04-21 21:23:00,58.0,45.0,-100.00,NW,320,3.0,-999.0,59,0.00,,,-99.99,,2013-04-22 04:23:00,
2013-04-21 21:33:00,58.0,45.0,-100.00,NW,320,3.0,-999.0,59,0.00,,,-99.99,,2013-04-22 04:33:00,
2013-04-21 21:43:00,58.0,45.0,-100.00,NW,320,3.0,-999.0,59,0.00,,,-99.99,,2013-04-22 04:43:00,
2013-04-21 21:52:00,58.0,45.0,-100.00,NW,320,3.0,-999.0,59,0.00,,,-99.99,,2013-04-22 04:52:00,
2013-04-21 22:00:00,57.0,44.0,-100.00,SW,226,6.0,-999.0,62,0.00,,,-99.99,,2013-04-22 05:00:00,
2013-04-21 22:23:00,57.0,44.0,-100.00,SW,226,6.0,-999.0,62,0.00,,,-99.99,,2013-04-22 05:23:00,
2013-04-21 22:33:00,57.0,44.0,-100.00,SW,226,6.0,-999.0,62,0.00,,,-99.99,,2013-04-22 05:33:00,
2013-04-21 22:42:00,57.0,44.0,-100.00,SW,226,6.0,-999.0,62,0.00,,,-99.99,,2013-04-22 05:42:00,
2013-04-21 22:52:00,57.0,44.0,-100.00,SW,226,6.0,-999.0,62,0.00,,,-99.99,,2013-04-22 05:52:00,
2013-04-21 23:00:00,57.0,44.0,-100.00,East,95,0.0,-999.0,61,0.00,,,-99.99,,2013-04-22 06:00:00,
2013-04-21 23:21:00,57.0,44.0,-100.00,East,95,0.0,-999.0,61,0.00,,,-99.99,,2013-04-22 06:21:00,
2013-04-21 23:32:00,57.0,44.0,-100.00,East,95,0.0,-999.0,61,0.00,,,-99.99,,2013-04-22 06:32:00,
2013-04-21 23:42:00,57.0,44.0,-100.00,East,95,0.0,-999.0,61,0.00,,,-99.99,,2013-04-22 06:42:00,
2013-04-21 23:52:00,57.0,44.0,-100.00,East,95,0.0,-999.0,61,0.00,,,-99.99,,2013-04-22 06:52:00,